SCP
0 0 0 0 0 0 0 0 0 0 0 0 0 0 0 0 0 0 0 0 0 0 0 0 0 0 0 0 0 0 0 0 0 0 0 0 0 0 0 0 0 0 0
0 0 0 0 0 0 0 0 0 0 0 0 0 0 0 0 0 0 0 0 0 0 0 0 0 0 0 0 0 0 0 0 0 0 0 0 0 0 0 0 0 0 0
0 0 0 0 0 0 0 0 0 0 0 0 0 0 0 0 0 0 0 0 0 0 0 0 0 0 0 0 0 0 0 0 0 0 0 0 0 0 0 0 0 0 0
0 0 0 0 0 0 0 0 0 0 0 0 0 0 0 0 0 0 0 0 0 0 0 0 0 0 0 0 0 0 0 0 0 0 0 0 0 0 0 0 0 0 0
0 0 0 0 0 0 0 0 0 0 0 0 0 0 0 0 0 0 0 0 0 0 0 0 0 0 0 0 0 0 0 0 0 0 0 0 0 0 0 0 0 0 0
0 0 0 0 0 0 0 0 0 0 0 0 0 0 0 0 0 0 0 0 0 0 0 0 0 0 0 0 0 0 0 0 0 0 0 0 0 0 0 0 0 0 0
0 0 0 0 0 0 0 0 0 0 0 0 0 0 0 0 0 0 0 0 0 0 0 0 0 0 0 0 0 0 0 0 0 0 0 0 0 0 0 0 0 0 0
0 0 0 0 0 0 0 0 0 0 0 0 0 0 0 0 0 0 0 0 0 0 0 0 0 0 0 0 0 0 0 0 0 0 0 0 0 0 0 0 0 0 0
0 0 0 0 0 0 0 0 0 0 0 0 0 0 0 0 0 0 0 0 0 0 0 0 0 0 0 0 0 0 0 0 0 0 0 0 0 0 0 0 0 0 0
0 0 0 0 0 0 0 0 0 0 0 0 0 0 0 0 0 0 0 0 0 0 0 0 0 0 0 0 0 0 0 0 0 0 0 0 0 0 0 0 0 0 0
0 0 0 0 0 0 0 0 0 0 0 0 0 0 0 0 0 0 0 0 0 0 0 0 0 0 0 0 0 0 0 0 0 0 0 0 0 0 0 0 0 0 0
0 0 0 0 0 0 0 0 0 0 0 0 0 0 0 0 0 0 0 0 0 0 0 0 0 0 0 0 0 0 0 0 0 0 0 0 0 0 0 0 0 0 0
0 0 0 0 0 0 0 0 0 0 0 0 0 0 0 0 0 0 0 0 0 0 0 0 0 0 0 0 0 0 0 0 0 0 0 0 0 0 0 0 0 0 0
0 0 0 0 0 0 0 0 0 0 0 0 0 0 0 0 0 0 0 0 0 0 0 0 0 0 0 0 0 0 0 0 0 0 0 0 0 0 0 0 0 0 0
0 0 0 0 0 0 0 0 0 0 0 0 0 0 0 0 0 0 0 0 0 0 0 0 0 0 0 0 0 0 0 0 0 0 0 0 0 0 0 0 0 0 0
0 0 0 0 0 0 0 0 0 0 0 0 0 0 0 0 0 0 0 0 0 0 0 0 0 0 0 0 0 0 0 0 0 0 0 0 0 0 0 0 0 0 0
0 0 0 0 0 0 0 0 0 0 0 0 0 0 0 0 0 0 0 0 0 0 0 0 0 0 0 0 0 0 0 0 0 0 0 0 0 0 0 0 0 0 0
0 0 0 0 0 0 0 0 0 0 0 0 0 0 0 0 0 0 0 0 0 0 0 0 0 0 0 0 0 0 0 0 0 0 0 0 0 0 0 0 0 0 0
0 0 0 0 0 0 0 0 0 0 0 0 0 0 0 0 0 0 0 0 0 0 0 0 0 0 0 0 0 0 0 0 0 0 0 0 0 0 0 0 0 0 0
0 0 0 0 0 0 0 0 0 0 0 0 0 0 0 0 0 0 0 0 0 0 0 0 0 0 0 0 0 0 0 0 0 0 0 0 0 0 0 0 0 0 0
0 0 0 0 0 0 0 0 0 0 0 0 0 0 0 0 0 0 0 0 0 0 0 0 0 0 0 0 0 0 0 0 0 0 0 0 0 0 0 0 0 0 0
0 0 0 0 0 0 0 0 0 0 0 0 0 0 0 0 0 0 0 0 0 0 0 0 0 0 0 0 0 0 0 0 0 0 0 0 0 0 0 0 0 0 0
0 0 0 0 0 0 0 0 0 0 0 0 0 0 0 0 0 0 0 0 0 0 0 0 0 0 0 0 0 0 0 0 0 0 0 0 0 0 0 0 0 0 0
0 0 0 0 0 0 0 0 0 0 0 0 0 0 0 0 0 0 0 0 0 0 0 0 0 0 0 0 0 0 0 0 0 0 0 0 0 0 0 0 0 0 0
0 0 0 0 0 0 0 0 0 0 0 0 0 0 0 0 0 0 0 0 0 0 0 0 0 0 0 0 0 0 0 0 0 0 0 0 0 0 0 0 0 0 0
0 0 0 0 0 0 0 0 0 0 0 0 0 0 0 0 0 0 0 0 0 0 0 0 0 0 0 0 0 0 0 0 0 0 0 0 0 0 0 0 0 0 0
Wind_Speed_500mb
62 70 81 89 92 94 97 95 94 90 84 85 87 81 78 81 81 71 70 59 59 55 54 52 45 44 44 40 37 34 32 31 32 30 26 22 15 8 6 11 16 23 28
46 60 70 80 85 84 90 92 80 78 81 81 85 85 82 81 85 79 76 70 57 51 58 55 47 49 49 42 37 34 30 28 28 26 22 18 11 5 7 13 19 24 26
42 49 59 67 79 90 89 74 74 75 79 83 82 83 81 80 91 87 81 73 61 52 57 51 48 55 49 44 37 33 29 29 28 23 19 14 11 7 9 12 17 25 30
47 44 49 53 61 71 79 85 79 77 82 83 84 80 74 81 92 90 83 76 66 55 59 53 52 52 47 40 36 32 30 31 28 23 19 14 12 12 11 13 17 23 31
49 45 42 44 46 56 60 63 72 76 76 75 76 78 75 80 87 90 85 76 68 61 60 58 58 52 45 38 33 32 32 32 29 23 21 18 16 14 15 18 20 24 33
45 45 39 40 44 50 53 55 55 64 70 70 72 74 72 74 81 89 87 75 75 61 61 59 57 53 46 40 35 34 32 32 29 25 24 21 18 15 18 21 26 31 34
44 45 42 42 45 48 50 53 56 59 65 68 70 69 72 71 67 73 78 68 64 68 60 61 60 53 46 39 37 37 36 33 31 27 25 22 21 18 21 23 27 31 36
42 43 42 44 45 47 48 50 54 58 64 67 67 65 67 71 65 71 68 70 63 64 62 59 53 48 44 40 39 39 36 32 35 29 26 25 24 24 25 27 30 33 36
42 42 39 41 42 42 42 41 40 43 51 58 59 58 66 66 63 66 67 68 66 67 61 54 49 43 39 38 37 33 33 40 35 32 29 28 29 29 31 33 34 39 42
39 39 40 38 38 37 37 34 33 30 33 42 52 59 63 64 68 72 72 68 66 61 60 56 48 43 39 34 27 34 42 36 38 35 34 33 32 32 34 36 38 40 41
36 37 37 39 37 36 34 32 32 37 37 47 48 55 62 63 63 66 62 63 65 64 61 56 51 43 36 29 33 42 43 40 42 41 39 38 37 37 38 39 40 40 40
31 33 34 36 37 38 35 33 35 39 43 46 49 55 62 64 59 57 60 64 61 56 51 47 38 32 28 32 40 47 47 46 48 48 46 43 42 43 43 43 43 42 44
32 31 30 31 36 37 35 36 37 43 47 52 58 60 60 60 59 59 60 59 54 46 40 37 35 34 41 40 49 54 51 54 56 54 50 45 45 47 46 48 48 48 49
25 24 24 27 30 32 33 33 37 46 51 53 57 60 61 64 67 63 61 54 50 49 46 40 42 40 43 43 61 56 59 64 59 58 54 49 51 51 52 52 51 51 55
26 22 19 17 20 24 27 30 35 42 47 50 54 58 61 63 56 48 56 60 55 50 46 46 45 51 62 60 62 59 69 67 65 62 58 56 56 57 57 55 55 56 56
17 16 15 13 14 18 23 29 32 36 38 38 40 42 44 42 45 52 55 53 52 43 44 50 66 73 60 60 61 71 75 71 69 64 62 61 60 61 61 59 58 57 57
15 15 13 12 11 12 16 22 27 30 31 34 35 31 32 36 39 43 48 50 58 55 64 67 66 65 65 64 68 74 80 74 69 67 68 64 63 64 64 62 60 59 57
14 11 9 8 7 10 15 19 23 27 30 29 30 35 38 43 51 52 52 57 70 79 87 81 71 68 65 67 73 82 76 76 75 72 70 67 66 67 66 65 62 60 59
15 14 12 11 11 11 9 11 17 25 32 35 38 41 46 52 54 57 61 69 76 83 88 87 85 79 74 74 72 82 75 74 73 71 69 68 68 68 68 65 64 63 60
15 16 15 15 15 14 13 15 18 21 25 28 32 34 40 47 56 63 69 72 77 86 82 86 89 78 75 72 78 77 81 76 71 70 67 68 69 69 70 66 63 62 59
17 17 15 14 13 12 13 16 20 23 26 29 32 33 38 44 48 55 62 68 72 72 71 68 70 74 74 72 76 77 79 79 77 79 80 79 74 72 70 67 67 64 60
16 18 19 19 19 18 17 16 16 19 22 26 29 30 33 40 44 48 52 56 60 62 63 66 69 70 72 73 73 73 77 78 76 76 76 78 77 77 74 72 65 63 59
23 24 24 24 23 23 24 26 26 26 27 28 30 33 37 41 43 47 49 50 54 59 61 63 67 70 73 75 75 76 77 78 75 75 75 76 77 75 72 70 66 63 60
27 30 31 34 36 35 33 33 33 34 33 33 34 35 37 42 45 46 50 55 57 57 59 60 63 66 69 72 71 70 70 72 74 75 74 75 73 71 68 66 64 61 58
34 37 39 40 42 43 45 45 44 45 44 44 42 42 42 44 46 49 50 51 54 57 61 63 63 61 61 63 63 60 59 58 61 61 63 64 64 64 62 62 59 58 57
43 45 48 50 52 53 54 55 53 52 51 50 48 47 48 48 48 48 49 50 51 53 54 56 57 58 57 55 55 54 53 52 53 55 56 56 58 59 59 59 59 57 57
Wind_Direction_500mb
254 246 245 248 250 249 250 251 250 248 245 246 250 246 244 237 233 230 230 238 238 240 235 232 232 234 234 230 218 222 222 226 227 227 222 220 226 235 291 333 341 349 353
266 257 252 242 244 247 248 249 245 238 238 238 240 247 244 237 231 231 232 232 233 236 223 229 231 230 226 221 220 222 224 224 222 218 215 221 232 264 317 336 343 349 350
286 267 257 251 245 242 240 237 237 237 239 239 239 240 246 238 230 230 231 231 232 236 228 224 239 227 223 218 221 224 220 214 209 215 222 223 244 269 310 335 343 344 345
290 275 267 262 257 252 246 243 239 235 237 240 242 245 246 240 231 229 229 225 225 223 225 229 230 226 221 221 222 221 214 208 210 215 228 239 256 277 303 325 338 342 339
290 280 274 268 262 259 259 252 246 239 238 236 240 242 245 237 233 228 227 225 233 220 224 223 221 214 217 222 224 218 209 211 215 221 235 246 257 278 299 312 325 333 335
286 280 271 270 268 265 262 260 255 246 243 240 238 239 241 237 229 228 224 223 222 228 225 219 215 215 215 216 216 210 210 219 225 229 237 248 255 272 291 306 318 326 339
289 281 279 271 268 267 265 263 258 247 240 242 240 236 233 237 229 235 224 227 219 226 221 217 215 215 216 217 217 212 218 224 232 236 240 248 258 271 283 296 312 322 325
285 280 277 276 274 271 266 261 257 253 247 238 238 241 235 245 230 227 223 220 220 217 217 216 217 218 217 214 212 216 223 229 236 236 241 249 261 271 282 292 303 311 318
283 278 271 272 276 274 273 270 266 258 251 244 240 234 231 232 221 238 225 220 214 209 210 212 214 215 214 220 217 218 240 238 236 241 247 254 261 273 283 293 303 307 310
288 284 273 269 271 272 272 271 267 265 254 244 235 232 230 227 226 220 218 213 207 208 210 211 211 210 220 216 230 248 243 241 243 245 249 255 262 272 283 289 294 297 300
274 272 266 262 263 264 262 264 256 251 248 238 235 234 230 223 225 224 213 210 213 214 215 212 207 213 212 229 239 242 246 245 248 250 253 257 264 270 276 282 288 291 295
276 272 265 259 259 258 256 255 248 247 244 232 232 230 229 227 220 217 210 213 216 218 216 212 207 214 224 230 239 245 246 248 251 254 255 258 265 271 277 285 289 292 297
292 285 279 267 259 258 251 250 242 242 240 240 238 236 232 227 221 217 219 215 214 213 207 205 212 221 231 231 241 245 248 251 254 256 260 263 267 272 278 283 287 291 295
306 301 294 282 270 262 258 254 252 251 247 245 242 237 231 227 220 217 214 218 214 212 213 218 226 255 260 240 246 249 254 254 258 263 265 266 269 276 281 282 285 287 289
310 309 305 291 278 268 262 258 258 256 254 254 250 245 237 229 225 228 231 222 221 216 224 228 255 273 263 244 250 251 256 258 260 264 268 269 273 277 280 282 284 285 287
321 307 301 297 285 271 266 264 262 259 259 258 254 250 249 241 242 236 235 228 221 224 236 257 273 270 248 248 253 257 263 262 265 267 269 271 274 276 278 279 281 283 285
348 339 332 322 300 278 272 268 263 266 268 270 268 265 256 254 250 245 245 241 226 230 245 260 256 252 249 251 256 261 265 268 268 268 269 271 273 275 276 278 279 280 282
3 359 349 349 338 328 305 284 272 269 268 265 259 249 243 239 237 237 237 235 235 241 251 254 258 256 248 256 260 263 270 270 270 271 271 271 272 273 274 276 277 277 277
17 8 358 356 345 329 301 282 288 286 280 274 267 261 254 250 248 242 243 245 247 254 261 262 267 271 262 253 256 270 275 272 273 272 271 272 274 274 274 273 272 272 273
18 16 13 1 351 337 319 300 288 284 283 282 279 277 272 264 256 251 246 248 256 264 270 274 274 270 271 275 272 278 278 275 274 274 271 271 272 273 273 272 271 272 272
17 15 15 17 12 354 336 321 312 305 298 290 285 280 276 272 269 266 266 267 270 272 276 277 279 281 283 281 280 277 273 272 273 271 270 276 270 268 270 268 267 267 268
12 7 2 0 356 350 341 331 319 309 301 296 292 287 281 277 276 274 274 277 279 279 278 277 277 278 279 278 278 278 277 275 273 268 274 277 274 269 267 265 263 263 264
12 7 1 356 351 345 338 330 322 314 306 299 294 292 288 284 282 282 280 276 273 273 274 274 274 274 275 275 275 274 273 273 273 271 272 275 274 272 268 265 263 262 262
345 341 338 332 328 325 321 317 313 309 305 301 298 295 292 290 288 285 284 285 283 280 277 276 276 277 278 278 278 278 277 276 274 273 272 273 272 269 266 264 263 263 261
323 322 321 318 315 313 310 307 305 303 302 299 300 299 297 295 293 292 291 288 284 284 284 283 281 279 278 278 279 277 275 273 272 272 271 272 271 270 267 265 263 263 262
315 316 315 314 312 311 309 307 306 303 301 301 302 302 301 299 297 295 293 291 289 287 284 283 282 281 280 279 279 278 276 273 271 271 271 269 268 266 266 267 266 263 261
Wind_Speed_850mb
62 70 81 89 92 94 97 95 94 90 84 85 87 81 78 81 81 71 70 59 59 55 54 52 45 44 44 40 37 34 32 31 32 30 26 22 15 8 6 11 16 23 28
46 60 70 80 85 84 90 92 80 78 81 81 85 85 82 81 85 79 76 70 57 51 58 55 47 49 49 42 37 34 30 28 28 26 22 18 11 5 7 13 19 24 26
42 49 59 67 79 90 89 74 74 75 79 83 82 83 81 80 91 87 81 73 61 52 57 51 48 55 49 44 37 33 29 29 28 23 19 14 11 7 9 12 17 25 30
47 44 49 53 61 71 79 85 79 77 82 83 84 80 74 81 92 90 83 76 66 55 59 53 52 52 47 40 36 32 30 31 28 23 19 14 12 12 11 13 17 23 31
49 45 42 44 46 56 60 63 72 76 76 75 76 78 75 80 87 90 85 76 68 61 60 58 58 52 45 38 33 32 32 32 29 23 21 18 16 14 15 18 20 24 33
45 45 39 40 44 50 53 55 55 64 70 70 72 74 72 74 81 89 87 75 75 61 61 59 57 53 46 40 35 34 32 32 29 25 24 21 18 15 18 21 26 31 34
44 45 42 42 45 48 50 53 56 59 65 68 70 69 72 71 67 73 78 68 64 68 60 61 60 53 46 39 37 37 36 33 31 27 25 22 21 18 21 23 27 31 36
42 43 42 44 45 47 48 50 54 58 64 67 67 65 67 71 65 71 68 70 63 64 62 59 53 48 44 40 39 39 36 32 35 29 26 25 24 24 25 27 30 33 36
42 42 39 41 42 42 42 41 40 43 51 58 59 58 66 66 63 66 67 68 66 67 61 54 49 43 39 38 37 33 33 40 35 32 29 28 29 29 31 33 34 39 42
39 39 40 38 38 37 37 34 33 30 33 42 52 59 63 64 68 72 72 68 66 61 60 56 48 43 39 34 27 34 42 36 38 35 34 33 32 32 34 36 38 40 41
36 37 37 39 37 36 34 32 32 37 37 47 48 55 62 63 63 66 62 63 65 64 61 56 51 43 36 29 33 42 43 40 42 41 39 38 37 37 38 39 40 40 40
31 33 34 36 37 38 35 33 35 39 43 46 49 55 62 64 59 57 60 64 61 56 51 47 38 32 28 32 40 47 47 46 48 48 46 43 42 43 43 43 43 42 44
32 31 30 31 36 37 35 36 37 43 47 52 58 60 60 60 59 59 60 59 54 46 40 37 35 34 41 40 49 54 51 54 56 54 50 45 45 47 46 48 48 48 49
25 24 24 27 30 32 33 33 37 46 51 53 57 60 61 64 67 63 61 54 50 49 46 40 42 40 43 43 61 56 59 64 59 58 54 49 51 51 52 52 51 51 55
26 22 19 17 20 24 27 30 35 42 47 50 54 58 61 63 56 48 56 60 55 50 46 46 45 51 62 60 62 59 69 67 65 62 58 56 56 57 57 55 55 56 56
17 16 15 13 14 18 23 29 32 36 38 38 40 42 44 42 45 52 55 53 52 43 44 50 66 73 60 60 61 71 75 71 69 64 62 61 60 61 61 59 58 57 57
15 15 13 12 11 12 16 22 27 30 31 34 35 31 32 36 39 43 48 50 58 55 64 67 66 65 65 64 68 74 80 74 69 67 68 64 63 64 64 62 60 59 57
14 11 9 8 7 10 15 19 23 27 30 29 30 35 38 43 51 52 52 57 70 79 87 81 71 68 65 67 73 82 76 76 75 72 70 67 66 67 66 65 62 60 59
15 14 12 11 11 11 9 11 17 25 32 35 38 41 46 52 54 57 61 69 76 83 88 87 85 79 74 74 72 82 75 74 73 71 69 68 68 68 68 65 64 63 60
15 16 15 15 15 14 13 15 18 21 25 28 32 34 40 47 56 63 69 72 77 86 82 86 89 78 75 72 78 77 81 76 71 70 67 68 69 69 70 66 63 62 59
17 17 15 14 13 12 13 16 20 23 26 29 32 33 38 44 48 55 62 68 72 72 71 68 70 74 74 72 76 77 79 79 77 79 80 79 74 72 70 67 67 64 60
16 18 19 19 19 18 17 16 16 19 22 26 29 30 33 40 44 48 52 56 60 62 63 66 69 70 72 73 73 73 77 78 76 76 76 78 77 77 74 72 65 63 59
23 24 24 24 23 23 24 26 26 26 27 28 30 33 37 41 43 47 49 50 54 59 61 63 67 70 73 75 75 76 77 78 75 75 75 76 77 75 72 70 66 63 60
27 30 31 34 36 35 33 33 33 34 33 33 34 35 37 42 45 46 50 55 57 57 59 60 63 66 69 72 71 70 70 72 74 75 74 75 73 71 68 66 64 61 58
34 37 39 40 42 43 45 45 44 45 44 44 42 42 42 44 46 49 50 51 54 57 61 63 63 61 61 63 63 60 59 58 61 61 63 64 64 64 62 62 59 58 57
43 45 48 50 52 53 54 55 53 52 51 50 48 47 48 48 48 48 49 50 51 53 54 56 57 58 57 55 55 54 53 52 53 55 56 56 58 59 59 59 59 57 57
Wind_Direction_850mb
254 246 245 248 250 249 250 251 250 248 245 246 250 246 244 237 233 230 230 238 238 240 235 232 232 234 234 230 218 222 222 226 227 227 222 220 226 235 291 333 341 349 353
266 257 252 242 244 247 248 249 245 238 238 238 240 247 244 237 231 231 232 232 233 236 223 229 231 230 226 221 220 222 224 224 222 218 215 221 232 264 317 336 343 349 350
286 267 257 251 245 242 240 237 237 237 239 239 239 240 246 238 230 230 231 231 232 236 228 224 239 227 223 218 221 224 220 214 209 215 222 223 244 269 310 335 343 344 345
290 275 267 262 257 252 246 243 239 235 237 240 242 245 246 240 231 229 229 225 225 223 225 229 230 226 221 221 222 221 214 208 210 215 228 239 256 277 303 325 338 342 339
290 280 274 268 262 259 259 252 246 239 238 236 240 242 245 237 233 228 227 225 233 220 224 223 221 214 217 222 224 218 209 211 215 221 235 246 257 278 299 312 325 333 335
286 280 271 270 268 265 262 260 255 246 243 240 238 239 241 237 229 228 224 223 222 228 225 219 215 215 215 216 216 210 210 219 225 229 237 248 255 272 291 306 318 326 339
289 281 279 271 268 267 265 263 258 247 240 242 240 236 233 237 229 235 224 227 219 226 221 217 215 215 216 217 217 212 218 224 232 236 240 248 258 271 283 296 312 322 325
285 280 277 276 274 271 266 261 257 253 247 238 238 241 235 245 230 227 223 220 220 217 217 216 217 218 217 214 212 216 223 229 236 236 241 249 261 271 282 292 303 311 318
283 278 271 272 276 274 273 270 266 258 251 244 240 234 231 232 221 238 225 220 214 209 210 212 214 215 214 220 217 218 240 238 236 241 247 254 261 273 283 293 303 307 310
288 284 273 269 271 272 272 271 267 265 254 244 235 232 230 227 226 220 218 213 207 208 210 211 211 210 220 216 230 248 243 241 243 245 249 255 262 272 283 289 294 297 300
274 272 266 262 263 264 262 264 256 251 248 238 235 234 230 223 225 224 213 210 213 214 215 212 207 213 212 229 239 242 246 245 248 250 253 257 264 270 276 282 288 291 295
276 272 265 259 259 258 256 255 248 247 244 232 232 230 229 227 220 217 210 213 216 218 216 212 207 214 224 230 239 245 246 248 251 254 255 258 265 271 277 285 289 292 297
292 285 279 267 259 258 251 250 242 242 240 240 238 236 232 227 221 217 219 215 214 213 207 205 212 221 231 231 241 245 248 251 254 256 260 263 267 272 278 283 287 291 295
306 301 294 282 270 262 258 254 252 251 247 245 242 237 231 227 220 217 214 218 214 212 213 218 226 255 260 240 246 249 254 254 258 263 265 266 269 276 281 282 285 287 289
310 309 305 291 278 268 262 258 258 256 254 254 250 245 237 229 225 228 231 222 221 216 224 228 255 273 263 244 250 251 256 258 260 264 268 269 273 277 280 282 284 285 287
321 307 301 297 285 271 266 264 262 259 259 258 254 250 249 241 242 236 235 228 221 224 236 257 273 270 248 248 253 257 263 262 265 267 269 271 274 276 278 279 281 283 285
348 339 332 322 300 278 272 268 263 266 268 270 268 265 256 254 250 245 245 241 226 230 245 260 256 252 249 251 256 261 265 268 268 268 269 271 273 275 276 278 279 280 282
3 359 349 349 338 328 305 284 272 269 268 265 259 249 243 239 237 237 237 235 235 241 251 254 258 256 248 256 260 263 270 270 270 271 271 271 272 273 274 276 277 277 277
17 8 358 356 345 329 301 282 288 286 280 274 267 261 254 250 248 242 243 245 247 254 261 262 267 271 262 253 256 270 275 272 273 272 271 272 274 274 274 273 272 272 273
18 16 13 1 351 337 319 300 288 284 283 282 279 277 272 264 256 251 246 248 256 264 270 274 274 270 271 275 272 278 278 275 274 274 271 271 272 273 273 272 271 272 272
17 15 15 17 12 354 336 321 312 305 298 290 285 280 276 272 269 266 266 267 270 272 276 277 279 281 283 281 280 277 273 272 273 271 270 276 270 268 270 268 267 267 268
12 7 2 0 356 350 341 331 319 309 301 296 292 287 281 277 276 274 274 277 279 279 278 277 277 278 279 278 278 278 277 275 273 268 274 277 274 269 267 265 263 263 264
12 7 1 356 351 345 338 330 322 314 306 299 294 292 288 284 282 282 280 276 273 273 274 274 274 274 275 275 275 274 273 273 273 271 272 275 274 272 268 265 263 262 262
345 341 338 332 328 325 321 317 313 309 305 301 298 295 292 290 288 285 284 285 283 280 277 276 276 277 278 278 278 278 277 276 274 273 272 273 272 269 266 264 263 263 261
323 322 321 318 315 313 310 307 305 303 302 299 300 299 297 295 293 292 291 288 284 284 284 283 281 279 278 278 279 277 275 273 272 272 271 272 271 270 267 265 263 263 262
315 316 315 314 312 311 309 307 306 303 301 301 302 302 301 299 297 295 293 291 289 287 284 283 282 281 280 279 279 278 276 273 271 271 271 269 268 266 266 267 266 263 261